Weather in Kazachka

Russia / Tula Oblast     53°21′50″N   38°04′10″E
temp.,
°C
wind,
m/s
gust,
m/s
humid.,
%
clouds,
%
prec.,
mm/h
press.,
hPa
HPBL,
m
12 may, wed
wed1200:00+7ese33850 0.0 102649
03:00+5e33904 0.0 102642
06:00+6ene36875 0.0 1026161
09:00+12ene466541 0.0 1024600
12:00+11ne5581100 0.5 1022543
15:00+9ne2291100 1.8 1021166
18:00+10ese347944 0.0 1019656
21:00+7e48935 0.0 1019146
13 may, thu
thu1300:00+7e5139387 0.0 1019283
03:00+9ese61591100 0.1 1018401
06:00+9ese51194100 0.0 1018374
09:00+13se4782100 0.0 1017566
12:00+17ese7106586 0.0 10151264
15:00+10wnw4797100 6.3 1016284
18:00+13sw4782100 7.6 1015570
21:00+10s2291100 7.6 101716
14 may, fri
fri1400:00+9se22910 0.0 101717
03:00+9se2292100 0.0 101719
06:00+10e3695100 0.0 1017128
09:00+16ese578279 0.1 1016429
12:00+20se696994 0.1 10151004
15:00+23se6106071 0.1 10131736
18:00+21sse61272100 1.3 1012558
21:00+16sse3792100 1.6 1012116
15 may, sat
sat1500:00+16se3392100 0.3 101242
03:00+14w3797100 5.6 1011238
06:00+14e41096100 3.9 1011292
09:00+18se698994 6.3 1010492
12:00+22ssw69681 3.3 10091083
15:00+22ssw696885 3.9 10101333
18:00+19sw59755 0.7 1011661
21:00+15sw38890 0.8 1012155
16 may, sun
sun1600:00+13sw23920 0.0 101237
03:00+12w22942 0.0 101412
06:00+13ssw11910 0.0 101541
09:00+17sw23760 0.0 1015531
12:00+20sw2363100 0.0 10151292
15:00+22sw1255100 0.0 10151550
18:00+22ene226558 0.0 1014165
21:00+16ne488199 0.0 1015136